Year,Month,Day,Hour,Minute,Value (Times are PST for temperature in C)
2011,07,23,00,00,13.00
2011,07,23,00,01,13.00
2011,07,23,00,02,13.00
2011,07,23,00,03,13.00
2011,07,23,00,04,13.00
2011,07,23,00,05,13.00
2011,07,23,00,06,13.00
2011,07,23,00,07,13.00
2011,07,23,00,08,13.00
2011,07,23,00,09,13.10
2011,07,23,00,10,13.10
2011,07,23,00,11,13.10
2011,07,23,00,12,13.10
2011,07,23,00,13,13.10
2011,07,23,00,14,13.10
2011,07,23,00,15,13.10
2011,07,23,00,16,13.10
2011,07,23,00,17,13.10
2011,07,23,00,18,13.10
2011,07,23,00,19,13.10
2011,07,23,00,20,13.10
2011,07,23,00,21,13.10
2011,07,23,00,22,13.10
2011,07,23,00,23,13.10
2011,07,23,00,24,13.10
2011,07,23,00,25,13.10
2011,07,23,00,26,13.10
2011,07,23,00,27,13.10
2011,07,23,00,28,13.10
2011,07,23,00,29,13.10
2011,07,23,00,30,13.10
2011,07,23,00,31,13.10
2011,07,23,00,32,13.10
2011,07,23,00,33,13.10
2011,07,23,00,34,13.10
2011,07,23,00,35,13.00
2011,07,23,00,36,13.00
2011,07,23,00,37,13.00
2011,07,23,00,38,13.00
2011,07,23,00,39,13.00
2011,07,23,00,40,13.00
2011,07,23,00,41,13.00
2011,07,23,00,42,12.90
2011,07,23,00,43,12.90
2011,07,23,00,44,12.90
2011,07,23,00,45,12.90
2011,07,23,00,46,12.90
2011,07,23,00,47,12.80
2011,07,23,00,48,12.80
2011,07,23,00,49,12.80
2011,07,23,00,50,12.80
2011,07,23,00,51,12.80
2011,07,23,00,52,12.70
2011,07,23,00,53,12.70
2011,07,23,00,54,12.70
2011,07,23,00,55,12.70
2011,07,23,00,56,12.60
2011,07,23,00,57,12.60
2011,07,23,00,58,12.60
2011,07,23,00,59,12.50
2011,07,23,01,00,12.50
2011,07,23,01,01,12.50
2011,07,23,01,02,12.50
2011,07,23,01,03,12.40
2011,07,23,01,04,12.40
2011,07,23,01,05,12.40
2011,07,23,01,06,12.40
2011,07,23,01,07,12.40
2011,07,23,01,08,12.30
2011,07,23,01,09,12.30
2011,07,23,01,10,12.30
2011,07,23,01,11,12.30
2011,07,23,01,12,12.30
2011,07,23,01,13,12.30
2011,07,23,01,14,12.20
2011,07,23,01,15,12.20
2011,07,23,01,16,12.20
2011,07,23,01,17,12.20
2011,07,23,01,18,12.20
2011,07,23,01,19,12.20
2011,07,23,01,20,12.20
2011,07,23,01,21,12.20
2011,07,23,01,22,12.20
2011,07,23,01,23,12.20
2011,07,23,01,24,12.20
2011,07,23,01,25,12.20
2011,07,23,01,26,12.20
2011,07,23,01,27,12.20
2011,07,23,01,28,12.20
2011,07,23,01,29,12.20
2011,07,23,01,30,12.20
2011,07,23,01,31,12.20
2011,07,23,01,32,12.20
2011,07,23,01,33,12.20
2011,07,23,01,34,12.10
2011,07,23,01,35,12.10
2011,07,23,01,36,12.10
2011,07,23,01,37,12.10
2011,07,23,01,38,12.10
2011,07,23,01,39,12.10
2011,07,23,01,40,12.00
2011,07,23,01,41,12.00
2011,07,23,01,42,12.00
2011,07,23,01,43,12.00
2011,07,23,01,44,12.00
2011,07,23,01,45,12.00
2011,07,23,01,46,12.00
2011,07,23,01,47,12.00
2011,07,23,01,48,12.00
2011,07,23,01,49,12.00
2011,07,23,01,50,12.00
2011,07,23,01,51,12.00
2011,07,23,01,52,12.00
2011,07,23,01,53,12.00
2011,07,23,01,54,12.00
2011,07,23,01,55,12.00
2011,07,23,01,56,12.00
2011,07,23,01,57,12.10
2011,07,23,01,58,12.10
2011,07,23,01,59,12.10
2011,07,23,02,00,12.10
2011,07,23,02,01,12.10
2011,07,23,02,02,12.10
2011,07,23,02,03,12.20
2011,07,23,02,04,12.20
2011,07,23,02,05,12.20
2011,07,23,02,06,12.20
2011,07,23,02,07,12.20
2011,07,23,02,08,12.30
2011,07,23,02,09,12.30
2011,07,23,02,10,12.30
2011,07,23,02,11,12.30
2011,07,23,02,12,12.30
2011,07,23,02,13,12.30
2011,07,23,02,14,12.30
2011,07,23,02,15,12.30
2011,07,23,02,16,12.20
2011,07,23,02,17,12.20
2011,07,23,02,18,12.20
2011,07,23,02,19,12.20
2011,07,23,02,20,12.20
2011,07,23,02,21,12.20
2011,07,23,02,22,12.20
2011,07,23,02,23,12.20
2011,07,23,02,24,12.20
2011,07,23,02,25,12.10
2011,07,23,02,26,12.10
2011,07,23,02,27,12.10
2011,07,23,02,28,12.10
2011,07,23,02,29,12.10
2011,07,23,02,30,12.10
2011,07,23,02,31,12.10
2011,07,23,02,32,12.10
2011,07,23,02,33,12.10
2011,07,23,02,34,12.10
2011,07,23,02,35,12.10
2011,07,23,02,36,12.10
2011,07,23,02,37,12.10
2011,07,23,02,38,12.10
2011,07,23,02,39,12.10
2011,07,23,02,40,12.10
2011,07,23,02,41,12.10
2011,07,23,02,42,12.10
2011,07,23,02,43,12.10
2011,07,23,02,44,12.10
2011,07,23,02,45,12.10
2011,07,23,02,46,12.10
2011,07,23,02,47,12.20
2011,07,23,02,48,12.20
2011,07,23,02,49,12.20
2011,07,23,02,50,12.20
2011,07,23,02,51,12.20
2011,07,23,02,52,12.20
2011,07,23,02,53,12.20
2011,07,23,02,54,12.20
2011,07,23,02,55,12.30
2011,07,23,02,56,12.30
2011,07,23,02,57,12.30
2011,07,23,02,58,12.30
2011,07,23,02,59,12.30
2011,07,23,03,00,12.30
2011,07,23,03,01,12.30
2011,07,23,03,02,12.40
2011,07,23,03,03,12.40
2011,07,23,03,04,12.40
2011,07,23,03,05,12.40
2011,07,23,03,06,12.40
2011,07,23,03,07,12.40
2011,07,23,03,08,12.40
2011,07,23,03,09,12.40
2011,07,23,03,10,12.30
2011,07,23,03,11,12.30
2011,07,23,03,12,12.30
2011,07,23,03,13,12.30
2011,07,23,03,14,12.30
2011,07,23,03,15,12.20
2011,07,23,03,16,12.20
2011,07,23,03,17,12.20
2011,07,23,03,18,12.20
2011,07,23,03,19,12.20
2011,07,23,03,20,12.10
2011,07,23,03,21,12.10
2011,07,23,03,22,12.10
2011,07,23,03,23,12.10
2011,07,23,03,24,12.10
2011,07,23,03,25,12.00
2011,07,23,03,26,12.00
2011,07,23,03,27,12.00
2011,07,23,03,28,12.00
2011,07,23,03,29,12.00
2011,07,23,03,30,12.00
2011,07,23,03,31,12.00
2011,07,23,03,32,12.00
2011,07,23,03,33,12.00
2011,07,23,03,34,12.00
2011,07,23,03,35,12.00
2011,07,23,03,36,11.90
2011,07,23,03,37,11.90
2011,07,23,03,38,11.90
2011,07,23,03,39,11.90
2011,07,23,03,40,12.00
2011,07,23,03,41,12.00
2011,07,23,03,42,12.00
2011,07,23,03,43,12.00
2011,07,23,03,44,12.00
2011,07,23,03,45,12.00
2011,07,23,03,46,12.10
2011,07,23,03,47,12.10
2011,07,23,03,48,12.10
2011,07,23,03,49,12.10
2011,07,23,03,50,12.10
2011,07,23,03,51,12.10
2011,07,23,03,52,12.10
2011,07,23,03,53,12.10
2011,07,23,03,54,12.10
2011,07,23,03,55,12.10
2011,07,23,03,56,12.10
2011,07,23,03,57,12.10
2011,07,23,03,58,12.10
2011,07,23,03,59,12.10
2011,07,23,04,00,12.10
2011,07,23,04,01,12.10
2011,07,23,04,02,12.10
2011,07,23,04,03,12.10
2011,07,23,04,04,12.20
2011,07,23,04,05,12.20
2011,07,23,04,06,12.20
2011,07,23,04,07,12.20
2011,07,23,04,08,12.20
2011,07,23,04,09,12.20
2011,07,23,04,10,12.20
2011,07,23,04,11,12.20
2011,07,23,04,12,12.20
2011,07,23,04,13,12.20
2011,07,23,04,14,12.30
2011,07,23,04,15,12.30
2011,07,23,04,16,12.30
2011,07,23,04,17,12.30
2011,07,23,04,18,12.30
2011,07,23,04,19,12.30
2011,07,23,04,20,12.30
2011,07,23,04,21,12.30
2011,07,23,04,22,12.30
2011,07,23,04,23,12.20
2011,07,23,04,24,12.20
2011,07,23,04,25,12.20
2011,07,23,04,26,12.10
2011,07,23,04,27,12.10
2011,07,23,04,28,12.00
2011,07,23,04,29,12.00
2011,07,23,04,30,12.00
2011,07,23,04,31,11.90
2011,07,23,04,32,11.90
2011,07,23,04,33,11.90
2011,07,23,04,34,11.80
2011,07,23,04,35,11.80
2011,07,23,04,36,11.80
2011,07,23,04,37,11.80
2011,07,23,04,38,11.80
2011,07,23,04,39,11.80
2011,07,23,04,40,11.70
2011,07,23,04,41,11.70
2011,07,23,04,42,11.70
2011,07,23,04,43,11.70
2011,07,23,04,44,11.70
2011,07,23,04,45,11.70
2011,07,23,04,46,11.60
2011,07,23,04,47,11.60
2011,07,23,04,48,11.60
2011,07,23,04,49,11.60
2011,07,23,04,50,11.60
2011,07,23,04,51,11.60
2011,07,23,04,52,11.60
2011,07,23,04,53,11.60
2011,07,23,04,54,11.60
2011,07,23,04,55,11.60
2011,07,23,04,56,11.60
2011,07,23,04,57,11.60
2011,07,23,04,58,11.60
2011,07,23,04,59,11.60
2011,07,23,05,00,11.50
2011,07,23,05,01,11.40
2011,07,23,05,02,11.40
2011,07,23,05,03,11.40
2011,07,23,05,04,11.50
2011,07,23,05,05,11.60
2011,07,23,05,06,11.60
2011,07,23,05,07,11.60
2011,07,23,05,08,11.60
2011,07,23,05,09,11.60
2011,07,23,05,10,11.60
2011,07,23,05,11,11.60
2011,07,23,05,12,11.60
2011,07,23,05,13,11.70
2011,07,23,05,14,11.70
2011,07,23,05,15,11.70
2011,07,23,05,16,11.70
2011,07,23,05,17,11.80
2011,07,23,05,18,11.80
2011,07,23,05,19,11.80
2011,07,23,05,20,11.80
2011,07,23,05,21,11.80
2011,07,23,05,22,11.80
2011,07,23,05,23,11.80
2011,07,23,05,24,11.80
2011,07,23,05,25,11.80
2011,07,23,05,26,11.80
2011,07,23,05,27,11.80
2011,07,23,05,28,11.80
2011,07,23,05,29,11.80
2011,07,23,05,30,11.80
2011,07,23,05,31,11.80
2011,07,23,05,32,11.80
2011,07,23,05,33,11.80
2011,07,23,05,34,11.80
2011,07,23,05,35,11.70
2011,07,23,05,36,11.70
2011,07,23,05,37,11.70
2011,07,23,05,38,11.70
2011,07,23,05,39,11.60
2011,07,23,05,40,11.60
2011,07,23,05,41,11.60
2011,07,23,05,42,11.60
2011,07,23,05,43,11.60
2011,07,23,05,44,11.60
2011,07,23,05,45,11.50
2011,07,23,05,46,11.40
2011,07,23,05,47,11.40
2011,07,23,05,48,11.40
2011,07,23,05,49,11.40
2011,07,23,05,50,11.40
2011,07,23,05,51,11.40
2011,07,23,05,52,11.40
2011,07,23,05,53,11.40
2011,07,23,05,54,11.40
2011,07,23,05,55,11.40
2011,07,23,05,56,11.40
2011,07,23,05,57,11.40
2011,07,23,05,58,11.40
2011,07,23,05,59,11.40
2011,07,23,06,00,11.40
2011,07,23,06,01,11.40
2011,07,23,06,02,11.40
2011,07,23,06,03,11.40
2011,07,23,06,04,11.40
2011,07,23,06,05,11.40
2011,07,23,06,06,11.40
2011,07,23,06,07,11.40
2011,07,23,06,08,11.50
2011,07,23,06,09,11.50
2011,07,23,06,10,11.60
2011,07,23,06,11,11.60
2011,07,23,06,12,11.60
2011,07,23,06,13,11.60
2011,07,23,06,14,11.60
2011,07,23,06,15,11.60
2011,07,23,06,16,11.60
2011,07,23,06,17,11.60
2011,07,23,06,18,11.60
2011,07,23,06,19,11.60
2011,07,23,06,20,11.60
2011,07,23,06,21,11.60
2011,07,23,06,22,11.60
2011,07,23,06,23,11.60
2011,07,23,06,24,11.60
2011,07,23,06,25,11.60
2011,07,23,06,26,11.60
2011,07,23,06,27,11.60
2011,07,23,06,28,11.60
2011,07,23,06,29,11.60
2011,07,23,06,30,11.60
2011,07,23,06,31,11.60
2011,07,23,06,32,11.60
2011,07,23,06,33,11.60
2011,07,23,06,34,11.70
2011,07,23,06,35,11.70
2011,07,23,06,36,11.70
2011,07,23,06,37,11.70
2011,07,23,06,38,11.80
2011,07,23,06,39,11.80
2011,07,23,06,40,11.80
2011,07,23,06,41,11.80
2011,07,23,06,42,11.90
2011,07,23,06,43,11.90
2011,07,23,06,44,11.90
2011,07,23,06,45,11.90
2011,07,23,06,46,12.00
2011,07,23,06,47,12.00
2011,07,23,06,48,12.00
2011,07,23,06,49,12.00
2011,07,23,06,50,12.00
2011,07,23,06,51,12.00
2011,07,23,06,52,12.00
2011,07,23,06,53,12.00
2011,07,23,06,54,12.10
2011,07,23,06,55,12.10
2011,07,23,06,56,12.20
2011,07,23,06,57,12.20
2011,07,23,06,58,12.30
2011,07,23,06,59,12.30
2011,07,23,07,00,12.30
2011,07,23,07,01,12.30
2011,07,23,07,02,12.30
2011,07,23,07,03,12.40
2011,07,23,07,04,12.40
2011,07,23,07,05,12.50
2011,07,23,07,06,12.50
2011,07,23,07,07,12.60
2011,07,23,07,08,12.60
2011,07,23,07,09,12.70
2011,07,23,07,10,12.70
2011,07,23,07,11,12.70
2011,07,23,07,12,12.70
2011,07,23,07,13,12.70
2011,07,23,07,14,12.70
2011,07,23,07,15,12.80
2011,07,23,07,16,12.80
2011,07,23,07,17,12.80
2011,07,23,07,18,12.80
2011,07,23,07,19,12.90
2011,07,23,07,20,12.90
2011,07,23,07,21,12.90
2011,07,23,07,22,12.90
2011,07,23,07,23,12.90
2011,07,23,07,24,12.90
2011,07,23,07,25,12.90
2011,07,23,07,26,12.90
2011,07,23,07,27,12.90
2011,07,23,07,28,12.90
2011,07,23,07,29,13.00
2011,07,23,07,30,13.10
2011,07,23,07,31,13.10
2011,07,23,07,32,13.10
2011,07,23,07,33,13.10
2011,07,23,07,34,13.10
2011,07,23,07,35,13.10
2011,07,23,07,36,13.20
2011,07,23,07,37,13.20
2011,07,23,07,38,13.20
2011,07,23,07,39,13.30
2011,07,23,07,40,13.30
2011,07,23,07,41,13.30
2011,07,23,07,42,13.40
2011,07,23,07,43,13.50
2011,07,23,07,44,13.50
2011,07,23,07,45,13.60
2011,07,23,07,46,13.60
2011,07,23,07,47,13.70
2011,07,23,07,48,13.70
2011,07,23,07,49,13.70
2011,07,23,07,50,13.80
2011,07,23,07,51,13.90
2011,07,23,07,52,13.90
2011,07,23,07,53,14.00
2011,07,23,07,54,14.10
2011,07,23,07,55,14.20
2011,07,23,07,56,14.20
2011,07,23,07,57,14.40
2011,07,23,07,58,14.40
2011,07,23,07,59,14.50
2011,07,23,08,00,14.50
2011,07,23,08,01,14.60
2011,07,23,08,02,14.60
2011,07,23,08,03,14.70
2011,07,23,08,04,14.80
2011,07,23,08,05,14.80
2011,07,23,08,06,14.80
2011,07,23,08,07,14.80
2011,07,23,08,08,14.80
2011,07,23,08,09,14.60
2011,07,23,08,10,14.50
2011,07,23,08,11,14.40
2011,07,23,08,12,14.30
2011,07,23,08,13,14.20
2011,07,23,08,14,14.20
2011,07,23,08,15,14.20
2011,07,23,08,16,14.20
2011,07,23,08,17,14.20
2011,07,23,08,18,14.10
2011,07,23,08,19,14.10
2011,07,23,08,20,14.00
2011,07,23,08,21,14.00
2011,07,23,08,22,14.00
2011,07,23,08,23,14.00
2011,07,23,08,24,14.00
2011,07,23,08,25,14.00
2011,07,23,08,26,14.10
2011,07,23,08,27,14.10
2011,07,23,08,28,14.00
2011,07,23,08,29,14.00
2011,07,23,08,30,14.00
2011,07,23,08,31,14.10
2011,07,23,08,32,14.10
2011,07,23,08,33,14.10
2011,07,23,08,34,14.20
2011,07,23,08,35,14.30
2011,07,23,08,36,14.30
2011,07,23,08,37,14.30
2011,07,23,08,38,14.30
2011,07,23,08,39,14.30
2011,07,23,08,40,14.20
2011,07,23,08,41,14.10
2011,07,23,08,42,14.00
2011,07,23,08,43,14.00
2011,07,23,08,44,14.00
2011,07,23,08,45,14.10
2011,07,23,08,46,14.20
2011,07,23,08,47,14.20
2011,07,23,08,48,14.30
2011,07,23,08,49,14.40
2011,07,23,08,50,14.40
2011,07,23,08,51,14.50
2011,07,23,08,52,14.60
2011,07,23,08,53,14.60
2011,07,23,08,54,14.50
2011,07,23,08,55,14.50
2011,07,23,08,56,14.50
2011,07,23,08,57,14.50
2011,07,23,08,58,14.50
2011,07,23,08,59,14.50
2011,07,23,09,00,14.40
2011,07,23,09,01,14.20
2011,07,23,09,02,14.30
2011,07,23,09,03,14.30
2011,07,23,09,04,14.30
2011,07,23,09,05,14.30
2011,07,23,09,06,14.20
2011,07,23,09,07,14.20
2011,07,23,09,08,14.20
2011,07,23,09,09,14.20
2011,07,23,09,10,14.20
2011,07,23,09,11,14.20
2011,07,23,09,12,14.20
2011,07,23,09,13,14.20
2011,07,23,09,14,14.20
2011,07,23,09,15,14.20
2011,07,23,09,16,14.30
2011,07,23,09,17,14.30
2011,07,23,09,18,14.30
2011,07,23,09,19,14.40
2011,07,23,09,20,14.50
2011,07,23,09,21,14.50
2011,07,23,09,22,14.60
2011,07,23,09,23,14.60
2011,07,23,09,24,14.60
2011,07,23,09,25,14.70
2011,07,23,09,26,14.70
2011,07,23,09,27,14.80
2011,07,23,09,28,14.80
2011,07,23,09,29,14.90
2011,07,23,09,30,15.00
2011,07,23,09,31,15.00
2011,07,23,09,32,15.10
2011,07,23,09,33,15.10
2011,07,23,09,34,15.10
2011,07,23,09,35,15.10
2011,07,23,09,36,15.10
2011,07,23,09,37,15.20
2011,07,23,09,38,15.20
2011,07,23,09,39,15.10
2011,07,23,09,40,15.10
2011,07,23,09,41,15.10
2011,07,23,09,42,15.00
2011,07,23,09,43,14.80
2011,07,23,09,44,14.80
2011,07,23,09,45,14.80
2011,07,23,09,46,14.90
2011,07,23,09,47,15.00
2011,07,23,09,48,15.00
2011,07,23,09,49,15.10
2011,07,23,09,50,15.10
2011,07,23,09,51,15.00
2011,07,23,09,52,15.00
2011,07,23,09,53,15.10
2011,07,23,09,54,15.00
2011,07,23,09,55,15.00
2011,07,23,09,56,14.90
2011,07,23,09,57,15.00
2011,07,23,09,58,15.00
2011,07,23,09,59,15.10
2011,07,23,10,00,15.20
2011,07,23,10,01,15.30
2011,07,23,10,02,15.30
2011,07,23,10,03,15.30
2011,07,23,10,04,15.20
2011,07,23,10,05,15.20
2011,07,23,10,06,15.20
2011,07,23,10,07,15.20
2011,07,23,10,08,15.40
2011,07,23,10,09,15.50
2011,07,23,10,10,15.70
2011,07,23,10,11,15.80
2011,07,23,10,12,15.80
2011,07,23,10,13,15.90
2011,07,23,10,14,15.80
2011,07,23,10,15,15.80
2011,07,23,10,16,15.80
2011,07,23,10,17,15.70
2011,07,23,10,18,15.60
2011,07,23,10,19,15.50
2011,07,23,10,20,15.50
2011,07,23,10,21,15.50
2011,07,23,10,22,15.50
2011,07,23,10,23,15.60
2011,07,23,10,24,15.80
2011,07,23,10,25,16.00
2011,07,23,10,26,16.10
2011,07,23,10,27,16.20
2011,07,23,10,28,16.20
2011,07,23,10,29,16.30
2011,07,23,10,30,16.40
2011,07,23,10,31,16.40
2011,07,23,10,32,16.40
2011,07,23,10,33,16.40
2011,07,23,10,34,16.40
2011,07,23,10,35,16.40
2011,07,23,10,36,16.30
2011,07,23,10,37,16.30
2011,07,23,10,38,16.20
2011,07,23,10,39,16.20
2011,07,23,10,40,16.20
2011,07,23,10,41,16.10
2011,07,23,10,42,16.10
2011,07,23,10,43,16.10
2011,07,23,10,44,16.10
2011,07,23,10,45,16.10
2011,07,23,10,46,16.20
2011,07,23,10,47,16.20
2011,07,23,10,48,16.30
2011,07,23,10,49,16.30
2011,07,23,10,50,16.40
2011,07,23,10,51,16.30
2011,07,23,10,52,16.10
2011,07,23,10,53,16.10
2011,07,23,10,54,16.10
2011,07,23,10,55,16.10
2011,07,23,10,56,16.20
2011,07,23,10,57,16.20
2011,07,23,10,58,16.10
2011,07,23,10,59,16.10
2011,07,23,11,00,16.00
2011,07,23,11,01,15.90
2011,07,23,11,02,15.90
2011,07,23,11,03,15.90
2011,07,23,11,04,16.00
2011,07,23,11,05,16.10
2011,07,23,11,06,16.10
2011,07,23,11,07,16.10
2011,07,23,11,08,16.10
2011,07,23,11,09,16.10
2011,07,23,11,10,16.10
2011,07,23,11,11,16.00
2011,07,23,11,12,15.90
2011,07,23,11,13,16.00
2011,07,23,11,14,16.10
2011,07,23,11,15,16.10
2011,07,23,11,16,16.10
2011,07,23,11,17,16.20
2011,07,23,11,18,16.30
2011,07,23,11,19,16.30
2011,07,23,11,20,16.40
2011,07,23,11,21,16.50
2011,07,23,11,22,16.60
2011,07,23,11,23,16.70
2011,07,23,11,24,16.70
2011,07,23,11,25,16.70
2011,07,23,11,26,16.70
2011,07,23,11,27,16.70
2011,07,23,11,28,16.70
2011,07,23,11,29,16.70
2011,07,23,11,30,16.70
2011,07,23,11,31,16.70
2011,07,23,11,32,16.70
2011,07,23,11,33,16.60
2011,07,23,11,34,16.60
2011,07,23,11,35,16.60
2011,07,23,11,36,16.60
2011,07,23,11,37,16.60
2011,07,23,11,38,16.60
2011,07,23,11,39,16.70
2011,07,23,11,40,16.80
2011,07,23,11,41,16.90
2011,07,23,11,42,16.90
2011,07,23,11,43,17.00
2011,07,23,11,44,17.00
2011,07,23,11,45,17.20
2011,07,23,11,46,17.30
2011,07,23,11,47,17.40
2011,07,23,11,48,17.40
2011,07,23,11,49,17.30
2011,07,23,11,50,17.30
2011,07,23,11,51,17.30
2011,07,23,11,52,17.30
2011,07,23,11,53,17.20
2011,07,23,11,54,17.20
2011,07,23,11,55,17.20
2011,07,23,11,56,17.30
2011,07,23,11,57,17.40
2011,07,23,11,58,17.40
2011,07,23,11,59,17.40
2011,07,23,12,00,17.30
2011,07,23,12,01,17.30
2011,07,23,12,02,17.30
2011,07,23,12,03,17.30
2011,07,23,12,04,17.30
2011,07,23,12,05,17.30
2011,07,23,12,06,17.20
2011,07,23,12,07,17.20
2011,07,23,12,08,17.20
2011,07,23,12,09,17.30
2011,07,23,12,10,17.30
2011,07,23,12,11,17.30
2011,07,23,12,12,17.30
2011,07,23,12,13,17.30
2011,07,23,12,14,17.30
2011,07,23,12,15,17.30
2011,07,23,12,16,17.30
2011,07,23,12,17,17.40
2011,07,23,12,18,17.40
2011,07,23,12,19,17.40
2011,07,23,12,20,17.30
2011,07,23,12,21,17.30
2011,07,23,12,22,17.40
2011,07,23,12,23,17.50
2011,07,23,12,24,17.50
2011,07,23,12,25,17.50
2011,07,23,12,26,17.50
2011,07,23,12,27,17.40
2011,07,23,12,28,17.30
2011,07,23,12,29,17.30
2011,07,23,12,30,17.30
2011,07,23,12,31,17.20
2011,07,23,12,32,17.30
2011,07,23,12,33,17.30
2011,07,23,12,34,17.30
2011,07,23,12,35,17.30
2011,07,23,12,36,17.30
2011,07,23,12,37,17.30
2011,07,23,12,38,17.30
2011,07,23,12,39,17.20
2011,07,23,12,40,17.20
2011,07,23,12,41,17.20
2011,07,23,12,42,17.20
2011,07,23,12,43,17.30
2011,07,23,12,44,17.30
2011,07,23,12,45,17.30
2011,07,23,12,46,17.30
2011,07,23,12,47,17.30
2011,07,23,12,48,17.30
2011,07,23,12,49,17.30
2011,07,23,12,50,17.30
2011,07,23,12,51,17.30
2011,07,23,12,52,17.30
2011,07,23,12,53,17.20
2011,07,23,12,54,17.10
2011,07,23,12,55,17.10
2011,07,23,12,56,17.20
2011,07,23,12,57,17.20
2011,07,23,12,58,17.30
2011,07,23,12,59,17.30
2011,07,23,13,00,17.30
2011,07,23,13,01,17.30
2011,07,23,13,02,17.40
2011,07,23,13,03,17.40
2011,07,23,13,04,17.40
2011,07,23,13,05,17.50
2011,07,23,13,06,17.60
2011,07,23,13,07,17.80
2011,07,23,13,08,17.90
2011,07,23,13,09,18.00
2011,07,23,13,10,18.10
2011,07,23,13,11,18.20
2011,07,23,13,12,18.20
2011,07,23,13,13,18.30
2011,07,23,13,14,18.40
2011,07,23,13,15,18.40
2011,07,23,13,16,18.40
2011,07,23,13,17,18.40
2011,07,23,13,18,18.30
2011,07,23,13,19,18.30
2011,07,23,13,20,18.30
2011,07,23,13,21,18.20
2011,07,23,13,22,18.20
2011,07,23,13,23,18.20
2011,07,23,13,24,18.40
2011,07,23,13,25,18.40
2011,07,23,13,26,18.30
2011,07,23,13,27,18.30
2011,07,23,13,28,18.20
2011,07,23,13,29,18.20
2011,07,23,13,30,18.30
2011,07,23,13,31,18.30
2011,07,23,13,32,18.30
2011,07,23,13,33,18.30
2011,07,23,13,34,18.40
2011,07,23,13,35,18.60
2011,07,23,13,36,18.70
2011,07,23,13,37,18.80
2011,07,23,13,38,18.70
2011,07,23,13,39,18.60
2011,07,23,13,40,18.50
2011,07,23,13,41,18.40
2011,07,23,13,42,18.30
2011,07,23,13,43,18.20
2011,07,23,13,44,18.20
2011,07,23,13,45,18.10
2011,07,23,13,46,18.10
2011,07,23,13,47,18.20
2011,07,23,13,48,18.20
2011,07,23,13,49,18.20
2011,07,23,13,50,18.20
2011,07,23,13,51,18.20
2011,07,23,13,52,18.20
2011,07,23,13,53,18.20
2011,07,23,13,54,18.20
2011,07,23,13,55,18.20
2011,07,23,13,56,18.20
2011,07,23,13,57,18.30
2011,07,23,13,58,18.50
2011,07,23,13,59,18.50
2011,07,23,14,00,18.60
2011,07,23,14,01,18.60
2011,07,23,14,02,18.60
2011,07,23,14,03,18.60
2011,07,23,14,04,18.60
2011,07,23,14,05,18.60
2011,07,23,14,06,18.60
2011,07,23,14,07,18.60
2011,07,23,14,08,18.60
2011,07,23,14,09,18.60
2011,07,23,14,10,18.60
2011,07,23,14,11,18.70
2011,07,23,14,12,18.60
2011,07,23,14,13,18.60
2011,07,23,14,14,18.60
2011,07,23,14,15,18.70
2011,07,23,14,16,18.70
2011,07,23,14,17,18.80
2011,07,23,14,18,18.90
2011,07,23,14,19,18.90
2011,07,23,14,20,19.00
2011,07,23,14,21,19.10
2011,07,23,14,22,19.30
2011,07,23,14,23,19.40
2011,07,23,14,24,19.50
2011,07,23,14,25,19.50
2011,07,23,14,26,19.60
2011,07,23,14,27,19.60
2011,07,23,14,28,19.60
2011,07,23,14,29,19.50
2011,07,23,14,30,19.40
2011,07,23,14,31,19.40
2011,07,23,14,32,19.40
2011,07,23,14,33,19.40
2011,07,23,14,34,19.30
2011,07,23,14,35,19.30
2011,07,23,14,36,19.20
2011,07,23,14,37,19.30
2011,07,23,14,38,19.20
2011,07,23,14,39,19.20
2011,07,23,14,40,19.10
2011,07,23,14,41,19.10
2011,07,23,14,42,19.10
2011,07,23,14,43,19.10
2011,07,23,14,44,19.20
2011,07,23,14,45,19.10
2011,07,23,14,46,19.10
2011,07,23,14,47,19.20
2011,07,23,14,48,19.10
2011,07,23,14,49,19.20
2011,07,23,14,50,19.30
2011,07,23,14,51,19.50
2011,07,23,14,52,19.60
2011,07,23,14,53,19.80
2011,07,23,14,54,20.00
2011,07,23,14,55,20.10
2011,07,23,14,56,20.10
2011,07,23,14,57,20.20
2011,07,23,14,58,20.20
2011,07,23,14,59,20.20
2011,07,23,15,00,20.20
2011,07,23,15,01,20.20
2011,07,23,15,02,20.30
2011,07,23,15,03,20.40
2011,07,23,15,04,20.40
2011,07,23,15,05,20.30
2011,07,23,15,06,20.20
2011,07,23,15,07,20.00
2011,07,23,15,08,19.90
2011,07,23,15,09,19.80
2011,07,23,15,10,19.70
2011,07,23,15,11,19.70
2011,07,23,15,12,19.60
2011,07,23,15,13,19.50
2011,07,23,15,14,19.40
2011,07,23,15,15,19.40
2011,07,23,15,16,19.40
2011,07,23,15,17,19.30
2011,07,23,15,18,19.20
2011,07,23,15,19,19.20
2011,07,23,15,20,19.10
2011,07,23,15,21,19.20
2011,07,23,15,22,19.20
2011,07,23,15,23,19.20
2011,07,23,15,24,19.20
2011,07,23,15,25,19.30
2011,07,23,15,26,19.50
2011,07,23,15,27,19.60
2011,07,23,15,28,19.70
2011,07,23,15,29,19.90
2011,07,23,15,30,20.10
2011,07,23,15,31,20.20
2011,07,23,15,32,20.30
2011,07,23,15,33,20.40
2011,07,23,15,34,20.40
2011,07,23,15,35,20.20
2011,07,23,15,36,20.20
2011,07,23,15,37,20.20
2011,07,23,15,38,20.20
2011,07,23,15,39,20.20
2011,07,23,15,40,20.30
2011,07,23,15,41,20.40
2011,07,23,15,42,20.40
2011,07,23,15,43,20.50
2011,07,23,15,44,20.70
2011,07,23,15,45,20.70
2011,07,23,15,46,20.70
2011,07,23,15,47,20.80
2011,07,23,15,48,20.90
2011,07,23,15,49,20.90
2011,07,23,15,50,20.90
2011,07,23,15,51,20.80
2011,07,23,15,52,20.70
2011,07,23,15,53,20.60
2011,07,23,15,54,20.50
2011,07,23,15,55,20.30
2011,07,23,15,56,20.30
2011,07,23,15,57,20.30
2011,07,23,15,58,20.20
2011,07,23,15,59,20.20
2011,07,23,16,00,20.20
2011,07,23,16,01,20.20
2011,07,23,16,02,20.20
2011,07,23,16,03,20.20
2011,07,23,16,04,20.20
2011,07,23,16,05,20.30
2011,07,23,16,06,20.40
2011,07,23,16,07,20.50
2011,07,23,16,08,20.60
2011,07,23,16,09,20.70
2011,07,23,16,10,20.80
2011,07,23,16,11,20.90
2011,07,23,16,12,20.90
2011,07,23,16,13,20.90
2011,07,23,16,14,21.00
2011,07,23,16,15,21.00
2011,07,23,16,16,21.00
2011,07,23,16,17,21.00
2011,07,23,16,18,21.00
2011,07,23,16,19,20.90
2011,07,23,16,20,20.80
2011,07,23,16,21,20.80
2011,07,23,16,22,20.80
2011,07,23,16,23,20.90
2011,07,23,16,24,20.90
2011,07,23,16,25,21.00
2011,07,23,16,26,21.00
2011,07,23,16,27,21.10
2011,07,23,16,28,21.20
2011,07,23,16,29,21.30
2011,07,23,16,30,21.30
2011,07,23,16,31,21.30
2011,07,23,16,32,21.30
2011,07,23,16,33,21.30
2011,07,23,16,34,21.30
2011,07,23,16,35,21.40
2011,07,23,16,36,21.40
2011,07,23,16,37,21.40
2011,07,23,16,38,21.50
2011,07,23,16,39,21.60
2011,07,23,16,40,21.60
2011,07,23,16,41,21.60
2011,07,23,16,42,21.70
2011,07,23,16,43,21.80
2011,07,23,16,44,21.90
2011,07,23,16,45,21.90
2011,07,23,16,46,21.90
2011,07,23,16,47,21.90
2011,07,23,16,48,21.90
2011,07,23,16,49,21.80
2011,07,23,16,50,21.60
2011,07,23,16,51,21.50
2011,07,23,16,52,21.30
2011,07,23,16,53,21.20
2011,07,23,16,54,21.10
2011,07,23,16,55,21.00
2011,07,23,16,56,20.90
2011,07,23,16,57,20.80
2011,07,23,16,58,20.80
2011,07,23,16,59,20.80
2011,07,23,17,00,20.90
2011,07,23,17,01,21.00
2011,07,23,17,02,21.10
2011,07,23,17,03,21.10
2011,07,23,17,04,21.20
2011,07,23,17,05,21.30
2011,07,23,17,06,21.30
2011,07,23,17,07,21.30
2011,07,23,17,08,21.30
2011,07,23,17,09,21.30
2011,07,23,17,10,21.30
2011,07,23,17,11,21.30
2011,07,23,17,12,21.30
2011,07,23,17,13,21.30
2011,07,23,17,14,21.20
2011,07,23,17,15,21.20
2011,07,23,17,16,21.10
2011,07,23,17,17,21.10
2011,07,23,17,18,21.10
2011,07,23,17,19,21.10